Regional Weather Roundup
Issued by NWS

Home | Current Version | Previous Version | Graphics & Text | Print | Product List | Glossary On
Versions: 1 2 3 4 5 6 7 8 9 10 11 12 13 14 15 16 17 18 19 20 21 22 23 24 25 26 27 28 29 30 31 32 33 34 35 36 37 38 39 40 41 42 43 44 45 46 47 48 49 50
000
ASUS43 KDMX 250201
RWRIA

WEATHER ROUNDUP FOR IOWA
NATIONAL WEATHER SERVICE DES MOINES IA
900 PM CDT FRI MAR 24 2017

NOTE: "FAIR" INDICATES FEW OR NO CLOUDS BELOW 12,000 FEET WITH NO
SIGNIFICANT WEATHER AND/OR OBSTRUCTIONS TO VISIBILITY.

* - THESE STATIONS ARE NOT NWS STATIONS...THUS NOT UNDER NWS
QUALITY CONTROL.  THEY ALSO DO NOT REPORT WEATHER SUCH
AS PRECIPITATION OR FOG.

IAZ001>003-012>014-020>022-031>034-043>046-250300-
   NORTHWEST IOWA

CITY           SKY/WX    TMP DP  RH WIND       PRES   REMARKS
CARROLL *      LGT RAIN  41  41 100 NE17G23   30.02R
CHEROKEE *     CLOUDY    41  40  96 NE13G18   30.08S
LE MARS *      MIX PCPN  41  39  93 NE16G24   30.08F
ORANGE CITY *  LGT RAIN  39  37  93 NE8       30.09S WCI  34
SHELDON *      CLOUDY    37  37 100 NE16      30.08F FOG     WCI  28
SIOUX CITY     LGT RAIN  42  40  92 NE15      30.06F
SPENCER        CLOUDY    40  38  93 NE18      30.09S WCI  31
$$

IAZ055>058-069>071-079>083-090>094-250300-
   SOUTHWEST IOWA

CITY           SKY/WX    TMP DP  RH WIND       PRES   REMARKS
ATLANTIC *     LGT RAIN  43  41  93 NE20G28   29.97S
AUDUBON *      LGT RAIN  41  37  87 N13G22    30.00S
CLARINDA *     CLOUDY    46  46 100 NE16      29.94S FOG
COUNCIL BLFS * MIX PCPN  41  41 100 NE18      29.97S
CRESTON *      MIX PCPN  45  45 100 NE18G26   29.94R
HARLAN  *      MIX PCPN  41  41 100 NE16G28   30.01S
LAMONI         CLOUDY    50  49  96 N14       29.89S FOG
RED OAK *      MIX PCPN  45  43  93 NE16G25   29.96R
SHENANDOAH *   HVY RAIN  45  43  93 N17       29.94S
$$

IAZ047>049-059>061-072>074-084-250300-
   CENTRAL IOWA

CITY           SKY/WX    TMP DP  RH WIND       PRES   REMARKS
AMES           LGT RAIN  43  42  97 NE14G24   30.00F
ANKENY *       CLOUDY    45  41  87 NE16      29.99F
BOONE *        CLOUDY    41  41 100 NE18G25   29.99F
CHARITON *     CLOUDY    48  48 100 NE16      29.92F FOG
DES MOINES     DRIZZLE   46  43  89 NE20      29.96F FOG
GRINNELL*      CLOUDY    44  42  93 NE12      30.00R FOG
MARSHALLTOWN   CLOUDY    43  42  97 NE17G23   30.00F
NEWTON *       CLOUDY    45  43  93 NE17      29.97S FOG
PELLA *        DRIZZLE   46  46  98 NE13G21   29.97F
$$

IAZ004>006-015-016-023>025-035-036-250300-
   NORTH CENTRAL IOWA

CITY           SKY/WX    TMP DP  RH WIND       PRES   REMARKS
ALGONA *       CLOUDY    41  41 100 NE15      30.08S
CLARION *      CLOUDY    41  41 100 NE18G25   30.05S FOG
ESTHERVILLE    CLOUDY    39  38  96 N17       30.10R WCI  30
FORT DODGE *   CLOUDY    39  36  87 NE12      30.05S WCI  32
MASON CITY     CLOUDY    40  37  89 NE18      30.08S WCI  31
FOREST CITY *  CLOUDY    39  37  93 NE15      30.07S WCI  31
WEBSTER CITY * LGT RAIN  41  39  93 NE17      30.00F
$$

IAZ007>011-017>019-026>030-037>042-050>054-066-250300-
   NORTHEAST IOWA

CITY           SKY/WX    TMP DP  RH WIND       PRES   REMARKS
CEDAR RAPIDS   CLOUDY    49  49 100 N12       29.98R FOG
CHARLES CITY * CLOUDY    41  41 100 NE15      30.06F
CLINTON *      LGT RAIN  53  53 100 NE8       30.00F FOG
DECORAH *      HVY RAIN  39  39 100 NE10G20   30.07R WCI  32
DUBUQUE        CLOUDY    46  43  89 NE14      30.01S FOG
MONTICELLO *   CLOUDY    48  46  93 NE8       30.00F
OELWEIN *      LGT RAIN  41  41 100 NE14G20   30.05R
WATERLOO       LGT RAIN  42  39  89 NE14      30.05R
$$

IAZ064-065-067-068-078-250300-
   EAST CENTRAL IOWA

CITY           SKY/WX    TMP DP  RH WIND       PRES   REMARKS
DAVENPORT      LGT RAIN  54  53  97 NE8       29.99F FOG
IOWA CITY      CLOUDY    55  53  93 N8        29.98S FOG
MUSCATINE *    LGT RAIN  55  54  94 CALM      29.99R
QUAD CITIES    CLOUDY    57  54  89 NE6       29.97F
$$

IAZ062-063-075>077-085>089-095>099-250300-
   SOUTHEAST IOWA

CITY           SKY/WX    TMP DP  RH WIND       PRES   REMARKS
BURLINGTON     LGT RAIN  56  56 100 SE5       29.99R FOG
FAIRFIELD *    CLOUDY    54  54 100 NE5       29.96R FOG
FORT MADISON * RAIN      55  54  94 E3        29.99R
KEOKUK *       CLOUDY    57  55  94 E6        29.97R FOG
OSKALOOSA *    LGT RAIN  50  49  98 N13       29.95F
OTTUMWA        RAIN      55  55 100 NE7       29.93F FOG
WASHINGTON *   LGT RAIN  54  54 100 E5        29.97S
$$

ABBREVIATIONS USED IN REMARKS
   TC - TEMPERATURES IN CELSIUS
  WCI - WIND CHILL INDEX
   HX - HEAT INDEX
  VSB - VISIBILITY
$$




USA.gov is the U.S. government's official web portal to all federal, state and local government web resources and services.